This demonstration page uses our WeatherBlox Daily Observations layout. Learn more.

40.92945, -100.16068

Hourly Observations for February 13, 2019

Temp ( °F °C ) Dew Point ( °F °C ) Humidity (%) Winds ( mph kmh ) Pressure ( in mb ) Visibility ( mi km ) Precip ( " mm )
12:15 am 00:15 Clear 30 -0.9 25 -4.1 79 79 SSE 8 13 30.14 1021 10 16.0934 0 0
12:35 am 00:35 Clear 31 -0.7 25 -4.1 78 78 SSE 9 15 30.12 1020 10 16.0934 0 0
12:55 am 00:55 Clear 31 -0.6 24 -4.5 75 75 S 8 13 30.1 1019 10 16.0934 0 0
1:15 am 01:15 Clear 31 -0.8 24 -4.4 77 77 S 8 13 30.1 1019 10 16.0934 0 0
1:35 am 01:35 Clear 31 -0.3 24 -4.5 74 74 S 7 11 30.1 1019 10 16.0934 0 0
1:55 am 01:55 Clear 31 -0.5 24 -4.6 74 74 S 7 11 30.09 1019 10 16.0934 0 0
2:15 am 02:15 Clear 31 -0.8 24 -4.6 76 76 S 3 6 30.08 1019 10 16.0934 0 0
2:35 am 02:35 Clear 31 -0.3 24 -4.6 73 73 S 6 9 30.08 1019 10 16.0934 0 0
2:55 am 02:55 Clear 30 -1 23 -4.8 76 76 S 6 9 30.08 1019 10 16.0934 0 0
3:15 am 03:15 Clear 31 -0.5 23 -4.9 72 72 S 3 6 30.07 1018 10 16.0934 0 0
3:35 am 03:35 Clear 31 -0.4 23 -5 71 71 SE 3 6 30.05 1018 10 16.0934 0 0
3:55 am 03:55 Clear 31 -0.8 22 -5.4 71 71 S 3 6 30.04 1017 10 16.0934 0 0
4:15 am 04:15 Clear 30 -1.1 22 -5.5 72 72 Calm 30.04 1017 10 16.0934 0 0
4:35 am 04:35 Clear 30 -1.1 23 -5.2 74 74 SSE 3 6 30.01 1016 10 16.0934 0 0
4:55 am 04:55 Clear 31 -0.5 23 -5.2 71 71 E 5 7 30 1016 10 16.0934 0 0
5:15 am 05:15 Clear 32 0 23 -5.2 68 68 SSE 5 7 29.98 1015 10 16.0934 0 0
5:35 am 05:35 Clear 32 0.1 23 -4.8 70 70 SSE 6 9 29.97 1015 10 16.0934 0 0
5:55 am 05:55 Clear 32 0 24 -4.5 72 72 S 6 9 29.97 1015 10 16.0934 0 0
6:15 am 06:15 Clear 32 -0.2 23 -4.8 71 71 Calm 29.97 1015 10 16.0934 0 0
6:35 am 06:35 Clear 32 -0.1 23 -5.1 69 69 S 5 7 29.96 1014 10 16.0934 0 0
6:55 am 06:55 Clear 29 -1.5 22 -5.5 74 74 SSE 3 6 29.96 1015 10 16.0934 0 0
7:15 am 07:15 Clear 29 -1.7 22 -5.5 76 76 S 7 11 29.95 1014 10 16.0934 0 0
7:35 am 07:35 Clear 29 -1.7 22 -5.3 77 77 Calm 29.95 1014 10 16.0934 0 0
7:55 am 07:55 Sunny 28 -2.1 22 -5.5 78 78 SSE 6 9 29.95 1014 10 16.0934 0 0
8:15 am 08:15 Sunny 29 -1.9 23 -4.9 80 80 S 5 7 29.95 1014 10 16.0934 0 0
8:35 am 08:35 Sunny 30 -1 24 -4.5 77 77 Calm 29.93 1013 10 16.0934 0 0
8:55 am 08:55 Sunny 31 -0.8 24 -4.2 78 78 S 5 7 29.92 1013 10 16.0934 0 0
9:15 am 09:15 Sunny 32 -0.2 25 -3.8 77 77 SSE 6 9 29.9 1012 10 16.0934 0 0
9:35 am 09:35 Sunny 33 0.4 26 -3.6 75 75 S 6 9 29.89 1012 10 16.0934 0 0
9:55 am 09:55 Sunny 34 0.9 26 -3.5 73 73 SSW 6 9 29.88 1012 10 16.0934 0 0
10:15 am 10:15 Sunny 35 1.8 26 -3.4 69 69 WSW 3 6 29.87 1011 10 16.0934 0 0
10:35 am 10:35 Sunny 38 3.3 26 -3.2 63 63 SSW 5 7 29.84 1011 10 16.0934 0 0
10:55 am 10:55 Sunny 39 4 26 -3.4 59 59 Calm 29.83 1010 10 16.0934 0 0
11:15 am 11:15 Sunny 41 5 26 -3.3 55 55 Calm 29.81 1009 10 16.0934 0 0
11:35 am 11:35 Sunny 43 6.1 27 -3 52 52 SSE 3 6 29.79 1009 10 16.0934 0 0
11:55 am 11:55 Sunny 44 6.6 27 -2.7 52 52 S 6 9 29.76 1008 10 16.0934 0 0
12:15 pm 12:15 Sunny 45 7.3 28 -2.4 51 51 S 8 13 29.75 1007 10 16.0934 0 0
12:35 pm 12:35 Sunny 48 8.8 28 -2 47 47 SSW 7 11 29.71 1006 10 16.0934 0 0
12:55 pm 12:55 Sunny 48 9.1 28 -2.2 45 45 S 5 7 29.7 1006 10 16.0934 0 0
1:15 pm 13:15 Sunny 49 9.7 29 -1.8 45 45 S 3 6 29.68 1005 10 16.0934 0 0
1:35 pm 13:35 Sunny 51 10.6 29 -1.9 42 42 Calm 29.65 1004 10 16.0934 0 0
1:55 pm 13:55 Sunny 53 11.5 29 -1.7 40 40 SE 6 9 29.62 1003 10 16.0934 0 0
2:15 pm 14:15 Sunny 54 12.3 29 -1.6 38 38 SSE 8 13 29.6 1002 10 16.0934 0 0
2:35 pm 14:35 Sunny 55 12.5 30 -1.3 39 39 SSE 8 13 29.58 1002 10 16.0934 0 0
2:55 pm 14:55 Sunny 55 12.7 29 -1.5 38 38 SE 9 15 29.55 1001 10 16.0934 0 0
3:15 pm 15:15 Sunny 55 13 29 -1.6 37 37 SSE 10 17 29.54 1000 10 16.0934 0 0
3:35 pm 15:35 Sunny 55 13 30 -1.1 38 38 SSE 10 17 29.53 1000 10 16.0934 0 0
3:55 pm 15:55 Sunny 55 12.7 31 -0.7 40 40 S 10 17 29.53 1000 10 16.0934 0 0
4:15 pm 16:15 Sunny 54 12.1 30 -1.1 40 40 SE 14 22 29.53 1000 10 16.0934 0 0
4:35 pm 16:35 Sunny 53 11.6 30 -1 42 42 S 16 26 29.53 1000 10 16.0934 0 0
4:55 pm 16:55 Sunny 52 11.3 29 -1.9 40 40 S 17 28 29.52 1000 10 16.0934 0 0
5:15 pm 17:15 Sunny 51 10.4 28 -2.2 42 42 S 13 20 29.53 1000 10 16.0934 0 0
5:35 pm 17:35 Sunny 48 9.1 28 -2 46 46 S 9 15 29.54 1000 10 16.0934 0 0
6:15 pm 18:15 Clear 43 5.9 28 -2.1 57 57 SSE 5 7 29.57 1001 10 16.0934 0 0
6:35 pm 18:35 Clear 40 4.7 27 -2.6 60 60 Calm 29.58 1002 10 16.0934 0 0
6:55 pm 18:55 Clear 41 5 28 -2.5 59 59 S 8 13 29.59 1002 10 16.0934 0 0
7:15 pm 19:15 Clear 38 3.4 28 -2.5 66 66 S 8 13 29.6 1002 10 16.0934 0 0
7:35 pm 19:35 Clear 38 3.5 28 -2.2 67 67 SSE 7 11 29.59 1002 10 16.0934 0 0
7:55 pm 19:55 Partly Cloudy 39 4.1 28 -2.1 64 64 SSE 8 13 29.58 1002 10 16.0934 0 0
8:15 pm 20:15 Partly Cloudy 38 3.6 28 -2.2 66 66 ESE 6 9 29.58 1002 10 16.0934 0 0
8:35 pm 20:35 Clear 38 3.4 28 -2.1 68 68 SE 7 11 29.56 1001 10 16.0934 0 0
8:55 pm 20:55 Clear 38 3.6 28 -2 67 67 SE 8 13 29.55 1001 10 16.0934 0 0
9:15 pm 21:15 Clear 39 3.7 29 -1.7 68 68 SE 8 13 29.54 1000 10 16.0934 0 0
9:35 pm 21:35 Clear 38 3.2 28 -2 69 69 SSE 7 11 29.53 1000 10 16.0934 0 0
9:55 pm 21:55 Clear 36 2.3 28 -2 74 74 Calm 29.54 1000 10 16.0934 0 0
10:15 pm 22:15 Clear 36 2.4 28 -2.2 72 72 Calm 29.55 1001 10 16.0934 0 0
10:35 pm 22:35 Clear 35 1.7 28 -2 77 77 Calm 29.56 1001 10 16.0934 0 0
10:55 pm 22:55 Partly Cloudy 34 1.2 29 -1.5 82 82 Calm 29.56 1001 10 16.0934 0 0
11:15 pm 23:15 Mostly Cloudy 34 1.1 29 -1.4 84 84 Calm 29.56 1001 10 16.0934 0 0
11:35 pm 23:35 Partly Cloudy 34 0.9 29 -1.9 82 82 Calm 29.57 1001 10 16.0934 0 0
11:55 pm 23:55 Partly Cloudy 32 0.2 28 -2.2 84 84 Calm 29.56 1001 10 16.0934 0 0

Powered by AerisWeather